Weather History for Wausau, WI

Change the Weather History Date:

Monday, February 27, 2012

  Actual Average Record
Temperature  
Mean Temperature 24 °F 23 °F  
Max Temperature 31 °F 32 °F 47 °F (2000)
Min Temperature 17 °F 14 °F -17 °F (2014)
Degree Days  
Heating Degree Days 41 42  
Month to date heating degree days 1076 1243  
Since 1 July heating degree days 5266 6093  
Cooling Degree Days 0 0  
Month to date cooling degree days 0 0  
Year to date cooling degree days 0 0  
Moisture  
Dew Point 17 °F    
Average Humidity 65    
Maximum Humidity 77    
Minimum Humidity 53    
Precipitation  
Precipitation 0.00 in 0.05 in 0.56 in (1948)
Month to date precipitation 0.37 0.88  
Year to date precipitation 1.41 1.90  
Snow  
Snow 0.00 in 0.30 in 4.60 in (1948)
Month to date snowfall 5.3 9.2  
Since 1 July snowfall 29.9 44.9  
Snow Depth -    
Sea Level Pressure  
Sea Level Pressure 30.22 in    
Wind  
Wind Speed 13 mph (West)    
Max Wind Speed 24 mph    
Max Gust Speed 35 mph    
Visibility 10 miles    
Events      
T = Trace of Precipitation, MM = Missing Value Source: NWS Daily Summary

Daily Weather History Graph

Daily Weather History Graph

Search for Another Location

Airport:

Trip Planner

Search our weather history database for the weather conditions in past years. The results will help you decide how hot, cold, wet, or windy it might be!

Date:

Astronomy

Feb. 27, 2012 Rise Set
Actual Time 6:40 AM CST 5:42 PM CST
Civil Twilight 6:11 AM CST 6:12 PM CST
Nautical Twilight 5:37 AM CST 6:46 PM CST
Astronomical Twilight 5:03 AM CST 7:20 PM CST
Moon 8:52 AM CST (2/27) 11:55 PM CST (2/27)
Length of Visible Light 12h 01m
Length of Day
11h 02m
Waxing Crescent, 29% of the Moon is Illuminated
Feb 27
Waxing Crescent
Feb 29
First Quarter
Mar 8
Full
Mar 14
Last Quarter
Mar 22
New

Hourly Weather History & Observations

Time (CST) Temp. Windchill Dew Point Humidity Pressure Visibility Wind Dir Wind Speed Gust Speed Precip Events Conditions
12:54 AM 30.0 °F 17.9 °F 21.0 °F 69% 29.92 in 10.0 mi West 18.4 mph 26.5 mph N/A   Overcast
1:03 AM 28.4 °F 16.6 °F 19.4 °F 69% 29.87 in 10.0 mi West 16.1 mph 26.5 mph N/A   Overcast
1:54 AM 28.9 °F 15.8 °F 19.0 °F 67% 29.94 in 10.0 mi West 20.7 mph 29.9 mph N/A   Overcast
2:19 AM 28.4 °F 15.4 °F 19.4 °F 69% 29.89 in 10.0 mi West 19.6 mph 26.5 mph N/A   Overcast
2:54 AM 28.0 °F 15.3 °F 19.0 °F 69% 29.95 in 10.0 mi West 18.4 mph 27.6 mph N/A   Overcast
3:54 AM 27.0 °F 12.5 °F 18.0 °F 69% 29.98 in 10.0 mi West 23.0 mph 34.5 mph N/A   Overcast
4:54 AM 27.0 °F 12.8 °F 19.0 °F 72% 30.01 in 10.0 mi West 21.9 mph 26.5 mph N/A   Overcast
5:54 AM 27.0 °F 13.5 °F 19.9 °F 75% 30.04 in 10.0 mi West 19.6 mph 26.5 mph N/A   Overcast
6:54 AM 27.0 °F 14.3 °F 19.9 °F 75% 30.07 in 10.0 mi West 17.3 mph 24.2 mph N/A   Overcast
7:54 AM 28.0 °F 18.1 °F 19.9 °F 72% 30.13 in 10.0 mi WNW 11.5 mph - N/A   Overcast
8:54 AM 26.1 °F 12.3 °F 18.0 °F 71% 30.18 in 10.0 mi WNW 19.6 mph 26.5 mph N/A   Overcast
9:06 AM 26.6 °F 14.7 °F 17.6 °F 69% 30.13 in 10.0 mi WNW 15.0 mph 26.5 mph N/A   Overcast
9:54 AM 26.1 °F 12.7 °F 17.1 °F 69% 30.23 in 10.0 mi WNW 18.4 mph 21.9 mph N/A   Overcast
10:54 AM 26.1 °F 14.0 °F 16.0 °F 66% 30.27 in 10.0 mi WNW 15.0 mph - N/A   Overcast
11:54 AM 26.1 °F 14.0 °F 15.1 °F 63% 30.30 in 10.0 mi West 15.0 mph - N/A   Overcast
12:54 PM 27.0 °F 14.7 °F 16.0 °F 63% 30.32 in 10.0 mi WNW 16.1 mph 21.9 mph N/A   Overcast
1:41 PM 28.4 °F 16.2 °F 14.0 °F 55% 30.27 in 10.0 mi WNW 17.3 mph - N/A   Scattered Clouds
1:54 PM 28.0 °F 17.0 °F 15.1 °F 58% 30.34 in 10.0 mi West 13.8 mph - N/A   Partly Cloudy
2:54 PM 30.0 °F 21.1 °F 15.1 °F 54% 30.35 in 10.0 mi West 10.4 mph - N/A   Partly Cloudy
3:54 PM 30.0 °F 19.1 °F 16.0 °F 56% 30.39 in 10.0 mi West 15.0 mph 21.9 mph N/A   Clear
4:54 PM 28.0 °F 16.5 °F 15.1 °F 58% 30.40 in 10.0 mi West 15.0 mph - N/A   Clear
5:54 PM 26.1 °F 19.4 °F 15.1 °F 63% 30.41 in 10.0 mi West 5.8 mph - N/A   Clear
6:54 PM 25.0 °F 20.7 °F 14.0 °F 63% 30.43 in 10.0 mi WSW 3.5 mph - N/A   Clear
7:54 PM 21.0 °F - 12.9 °F 71% 30.44 in 10.0 mi Calm Calm - N/A   Clear
8:54 PM 21.0 °F 16.2 °F 12.9 °F 71% 30.45 in 10.0 mi East 3.5 mph - N/A   Clear
9:54 PM 19.9 °F - 12.9 °F 74% 30.47 in 10.0 mi Calm Calm - N/A   Clear
10:54 PM 19.0 °F - 14.0 °F 81% 30.46 in 10.0 mi Calm Calm - N/A   Clear
11:54 PM 18.0 °F - 12.9 °F 81% 30.46 in 10.0 mi Calm Calm - N/A   Clear